DW8749 Weather Reports


Display with metric or nautical units.
time (UTC)temp
F
wind
direction
speed
MPH
gust
MPH
rain 1hr
in
rain 24hr
in
rain mn
in
humidity
%
barometer
mb
20260904191008 97 161 7.0 15.0 0.00 0.00 0.00 40 1012.3
20260904190510 97 165 5.0 13.0 0.00 0.00 0.00 41 1012.3
20260904190018 96 360 6.0 15.0 0.00 0.00 0.00 42 1012.4
20260904185511 96 360 10.0 15.0 0.00 0.00 0.00 44 1012.4
20260904185012 97 143 9.0 15.0 0.00 0.00 0.00 43 1012.4
20260904184521 96 360 8.0 15.0 0.00 0.00 0.00 44 1012.5
20260904184016 97 201 6.0 15.0 0.00 0.00 0.00 43 1012.5
20260904183515 96 190 7.0 15.0 0.00 0.00 0.00 45 1012.5
20260904183031 96 171 5.0 13.0 0.00 0.00 0.00 45 1012.6
20260904182517 96 202 5.0 13.0 0.00 0.00 0.00 47 1012.7
20260904182009 95 198 3.0 15.0 0.00 0.00 0.00 47 1012.6
20260904181511 95 360 7.0 14.0 0.00 0.00 0.00 47 1012.8
20260904181008 95 360 4.0 14.0 0.00 0.00 0.00 50 1012.9
20260904180510 94 360 9.0 15.0 0.00 0.00 0.00 48 1012.9
20260904180017 94 134 4.0 15.0 0.00 0.00 0.00 51 1012.9
20260904175512 93 210 6.0 13.0 0.00 0.00 0.00 52 1012.9
20260904175012 93 112 9.0 13.0 0.00 0.00 0.00 51 1013.0
20260904174529 93 171 6.0 12.0 0.00 0.00 0.00 51 1013.1
20260904174016 93 166 5.0 12.0 0.00 0.00 0.00 52 1013.1
20260904173517 92 360 7.0 15.0 0.00 0.00 0.00 53 1013.1
20260904173033 92 360 7.0 15.0 0.00 0.00 0.00 54 1013.2
20260904172510 92 360 5.0 15.0 0.00 0.00 0.00 55 1013.2
20260904172006 91 111 3.0 13.0 0.00 0.00 0.00 56 1013.2
20260904171514 91 360 8.0 13.0 0.00 0.00 0.00 55 1013.3
20260904171008 91 138 6.0 15.0 0.00 0.00 0.00 56 1013.3
20260904170512 90 194 8.0 15.0 0.00 0.00 0.00 56 1013.3
20260904170023 90 360 7.0 15.0 0.00 0.00 0.00 56 1013.4
20260904165514 90 161 9.0 15.0 0.00 0.00 0.00 56 1013.5
20260904165016 90 172 8.0 13.0 0.00 0.00 0.00 57 1013.5
20260904164530 90 159 7.0 14.0 0.00 0.00 0.00 57 1013.5
20260904164017 89 180 8.0 14.0 0.00 0.00 0.00 58 1013.5
20260904163520 89 360 7.0 14.0 0.00 0.00 0.00 59 1013.5
20260904163007 89 360 7.0 14.0 0.00 0.00 0.00 59 1013.4
20260904162507 89 360 7.0 17.0 0.00 0.00 0.00 59 1013.4
20260904162008 89 188 8.0 17.0 0.00 0.00 0.00 59 1013.3
20260904161515 89 192 6.0 14.0 0.00 0.00 0.00 60 1013.4
20260904161012 88 190 7.0 15.0 0.00 0.00 0.00 59 1013.3
20260904160515 88 165 6.0 15.0 0.00 0.00 0.00 60 1013.3
20260904160042 88 196 5.0 13.0 0.00 0.00 0.00 61 1013.2
20260904155517 88 186 5.0 13.0 0.00 0.00 0.00 62 1013.2
20260904155017 87 360 6.0 14.0 0.00 0.00 0.00 63 1013.2
20260904154534 86 360 5.0 14.0 0.00 0.00 0.00 64 1013.2
20260904154018 86 217 7.0 12.0 0.00 0.00 0.00 65 1013.2
20260904153515 85 360 6.0 15.0 0.00 0.00 0.00 66 1013.3
20260904153014 85 189 7.0 15.0 0.00 0.00 0.00 66 1013.2
20260904152508 85 360 4.0 13.0 0.00 0.00 0.00 67 1013.2
20260904152012 84 203 6.0 13.0 0.00 0.00 0.00 68 1013.2
20260904151525 83 171 7.0 13.0 0.00 0.00 0.00 69 1013.3
20260904151017 83 360 7.0 13.0 0.00 0.00 0.00 70 1013.2
20260904150514 82 154 7.0 15.0 0.00 0.00 0.00 70 1013.2
20260904150040 82 360 6.0 15.0 0.00 0.00 0.00 71 1013.2
20260904145522 82 360 7.0 15.0 0.00 0.00 0.00 71 1013.2
20260904145019 82 198 6.0 15.0 0.00 0.00 0.00 71 1013.2
20260904144532 81 222 8.0 13.0 0.00 0.00 0.00 72 1013.3
20260904144015 81 360 6.0 13.0 0.00 0.00 0.00 73 1013.3
20260904143509 80 189 7.0 16.0 0.00 0.00 0.00 73 1013.3
20260904143016 80 188 9.0 16.0 0.00 0.00 0.00 74 1013.3
20260904142513 79 360 5.0 14.0 0.00 0.00 0.00 75 1013.3
20260904142012 79 203 7.0 12.0 0.00 0.00 0.00 76 1013.2
20260904141529 78 148 5.0 12.0 0.00 0.00 0.00 77 1013.3
20260904141014 78 360 6.0 12.0 0.00 0.00 0.00 77 1013.3
20260904140514 78 172 5.0 12.0 0.00 0.00 0.00 78 1013.3
20260904140042 77 138 6.0 14.0 0.00 0.00 0.00 78 1013.3
20260904135516 77 153 8.0 15.0 0.00 0.00 0.00 79 1013.3
20260904135019 76 209 7.0 15.0 0.00 0.00 0.00 80 1013.2
20260904134537 76 192 5.0 15.0 0.00 0.00 0.00 80 1013.1
20260904134007 76 195 7.0 15.0 0.00 0.00 0.00 81 1013.1
20260904133510 75 167 4.0 11.0 0.00 0.00 0.00 81 1013.1
20260904133018 75 360 5.0 11.0 0.00 0.00 0.00 81 1013.1
20260904132514 75 190 4.0 12.0 0.00 0.00 0.00 81 1013.0
20260904132014 75 134 4.0 13.0 0.00 0.00 0.00 81 1012.9
20260904131527 75 167 6.0 13.0 0.00 0.00 0.00 81 1012.9
20260904131015 75 190 3.0 10.0 0.00 0.00 0.00 82 1012.8
20260904130518 75 153 6.0 10.0 0.00 0.00 0.00 82 1012.9
20260904130044 75 360 2.0 10.0 0.00 0.00 0.00 82 1012.9
20260904125516 75 180 4.0 10.0 0.00 0.00 0.00 81 1012.8
20260904125016 75 192 4.0 11.0 0.00 0.00 0.00 81 1012.7
20260904124536 75 143 6.0 11.0 0.00 0.00 0.00 81 1012.7
20260904124011 74 117 3.0 8.0 0.00 0.00 0.00 82 1012.7
20260904123510 74 360 3.0 8.0 0.00 0.00 0.00 82 1012.8
20260904123024 74 360 3.0 10.0 0.00 0.00 0.00 82 1012.7
20260904122515 74 360 5.0 10.0 0.00 0.00 0.00 82 1012.6
20260904122020 74 360 4.0 11.0 0.00 0.00 0.00 81 1012.5
20260904121531 74 173 6.0 11.0 0.00 0.00 0.00 81 1012.5
20260904121018 74 360 6.0 9.0 0.00 0.00 0.00 81 1012.4
20260904120518 75 160 5.0 9.0 0.00 0.00 0.00 81 1012.4
20260904120033 75 360 3.0 8.0 0.00 0.00 0.00 81 1012.5
20260904115517 75 156 4.0 8.0 0.00 0.00 0.00 80 1012.4
20260904115017 75 360 3.0 8.0 0.00 0.00 0.00 80 1012.4
20260904114519 75 150 3.0 8.0 0.00 0.00 0.00 80 1012.4
20260904114012 75 121 2.0 8.0 0.00 0.00 0.00 80 1012.4
20260904113513 75 360 3.0 8.0 0.00 0.00 0.00 80 1012.3
20260904113033 75 153 3.0 8.0 0.00 0.00 0.00 80 1012.4
20260904112515 75 198 4.0 8.0 0.00 0.00 0.00 80 1012.5
20260904112019 75 360 4.0 7.0 0.00 0.00 0.00 79 1012.5
20260904111538 75 360 3.0 8.0 0.00 0.00 0.00 79 1012.5
20260904111015 75 165 4.0 8.0 0.00 0.00 0.00 79 1012.6
20260904110518 75 189 2.0 8.0 0.00 0.00 0.00 79 1012.6
20260904110016 76 360 2.0 8.0 0.00 0.00 0.00 78 1012.6
20260904105512 76 160 3.0 8.0 0.00 0.00 0.00 78 1012.5
20260904105012 76 159 3.0 8.0 0.00 0.00 0.00 78 1012.6
20260904104526 76 161 4.0 12.0 0.00 0.00 0.00 78 1012.5
20260904104014 76 202 3.0 12.0 0.00 0.00 0.00 77 1012.5
20260904103514 76 169 3.0 7.0 0.00 0.00 0.00 77 1012.4
20260904103007 76 208 4.0 11.0 0.00 0.00 0.00 77 1012.4
20260904102507 76 209 6.0 11.0 0.00 0.00 0.00 77 1012.4
20260904102006 76 186 5.0 9.0 0.00 0.00 0.00 76 1012.3
20260904101511 76 360 3.0 9.0 0.00 0.00 0.00 76 1012.3
20260904101009 77 150 5.0 10.0 0.00 0.00 0.00 76 1012.3
20260904100509 77 360 5.0 10.0 0.00 0.00 0.00 76 1012.4
20260904100018 77 360 4.0 12.0 0.00 0.00 0.00 75 1012.3
20260904095511 77 169 5.0 13.0 0.00 0.00 0.00 75 1012.3
20260904095015 77 138 5.0 13.0 0.00 0.00 0.00 75 1012.3
20260904094528 77 188 5.0 11.0 0.00 0.00 0.00 74 1012.3
20260904094014 77 360 6.0 14.0 0.00 0.00 0.00 74 1012.3
20260904093502 77 150 4.0 14.0 0.00 0.00 0.00 74 1012.2
20260904093004 78 360 4.0 12.0 0.00 0.00 0.00 74 1012.2
20260904092508 78 360 6.0 12.0 0.00 0.00 0.00 73 1012.1
20260904092009 78 174 4.0 11.0 0.00 0.00 0.00 73 1012.1
20260904091516 78 188 5.0 14.0 0.00 0.00 0.00 73 1012.0
20260904091011 78 209 4.0 14.0 0.00 0.00 0.00 72 1012.2
20260904090512 78 154 8.0 14.0 0.00 0.00 0.00 72 1012.2
20260904090020 78 360 4.0 14.0 0.00 0.00 0.00 72 1012.2
20260904085514 78 162 7.0 14.0 0.00 0.00 0.00 71 1012.2
20260904085014 79 205 5.0 13.0 0.00 0.00 0.00 71 1012.0
20260904084530 79 178 7.0 15.0 0.00 0.00 0.00 71 1011.9
20260904084018 79 159 4.0 15.0 0.00 0.00 0.00 70 1011.9
20260904083505 79 181 6.0 11.0 0.00 0.00 0.00 70 1012.0
20260904083007 79 163 6.0 17.0 0.00 0.00 0.00 70 1012.0
20260904082509 79 155 7.0 17.0 0.00 0.00 0.00 69 1012.0
20260904082012 79 360 7.0 15.0 0.00 0.00 0.00 69 1011.9
20260904081518 80 360 7.0 14.0 0.00 0.00 0.00 69 1012.0
20260904081013 80 360 8.0 17.0 0.00 0.00 0.00 68 1012.0
20260904080516 80 182 6.0 18.0 0.00 0.00 0.00 68 1011.9
20260904080026 80 163 8.0 18.0 0.00 0.00 0.00 68 1012.0
20260904075514 80 170 7.0 16.0 0.00 0.00 0.00 68 1012.1
20260904075014 80 195 6.0 16.0 0.00 0.00 0.00 67 1012.0
20260904074535 80 175 7.0 15.0 0.00 0.00 0.00 67 1012.0
20260904074005 80 142 7.0 15.0 0.00 0.00 0.00 67 1011.9
20260904073509 80 170 6.0 17.0 0.00 0.00 0.00 67 1012.0
20260904073014 80 144 7.0 17.0 0.00 0.00 0.00 66 1012.1
20260904072507 81 195 6.0 16.0 0.00 0.00 0.00 66 1012.1
20260904072010 81 162 8.0 16.0 0.00 0.00 0.00 66 1012.2
20260904071524 81 138 7.0 11.0 0.00 0.00 0.00 66 1012.2
20260904071014 81 157 5.0 14.0 0.00 0.00 0.00 65 1012.2
20260904070514 81 169 6.0 14.0 0.00 0.00 0.00 65 1012.2
20260904070030 81 156 7.0 14.0 0.00 0.00 0.00 65 1012.1
20260904065518 81 157 7.0 14.0 0.00 0.00 0.00 64 1012.2
20260904065018 81 192 8.0 16.0 0.00 0.00 0.00 64 1012.2
20260904064512 81 175 5.0 17.0 0.00 0.00 0.00 64 1012.1
20260904064008 81 159 5.0 17.0 0.00 0.00 0.00 64 1012.1
20260904063507 82 159 6.0 13.0 0.00 0.00 0.00 63 1012.2
20260904063021 82 171 7.0 14.0 0.00 0.00 0.00 63 1012.1
20260904062510 82 200 6.0 14.0 0.00 0.00 0.00 62 1012.2
20260904062014 82 178 7.0 15.0 0.00 0.00 0.00 62 1012.0
20260904061526 82 180 8.0 15.0 0.00 0.00 0.00 62 1012.0
20260904061017 82 159 7.0 17.0 0.00 0.00 0.00 62 1011.9
20260904060514 82 173 7.0 17.0 0.00 0.00 0.00 61 1011.9
20260904060030 83 221 7.0 15.0 0.00 0.00 0.00 61 1011.8
20260904055515 83 193 8.0 15.0 0.00 0.00 0.00 61 1011.8
20260904055015 83 171 7.0 21.0 0.00 0.00 0.00 60 1011.8
20260904054515 83 155 9.0 21.0 0.00 0.00 0.00 60 1011.7
20260904054007 83 218 8.0 16.0 0.00 0.00 0.00 59 1011.6
20260904053510 83 160 6.0 18.0 0.00 0.00 0.00 59 1011.6
20260904053025 83 209 10.0 18.0 0.00 0.00 0.00 59 1011.6
20260904052514 84 173 7.0 18.0 0.00 0.00 0.00 58 1011.5
20260904052012 84 155 7.0 18.0 0.00 0.00 0.00 58 1011.4
20260904051551 84 172 8.0 19.0 0.00 0.00 0.00 58 1011.6
20260904051016 84 159 8.0 19.0 0.00 0.00 0.00 57 1011.4
20260904050517 84 174 7.0 16.0 0.00 0.00 0.00 57 1011.3
20260904050031 84 159 9.0 17.0 0.00 0.00 0.00 57 1011.3
20260904045519 85 155 8.0 18.0 0.00 0.00 0.00 56 1011.3
20260904045007 85 143 9.0 21.0 0.00 0.00 0.00 56 1011.2
20260904044516 85 169 11.0 23.0 0.00 0.00 0.00 55 1011.2
20260904044013 85 145 7.0 23.0 0.00 0.00 0.00 55 1011.2
20260904043512 85 128 9.0 20.0 0.00 0.00 0.00 54 1011.1
20260904043025 86 138 9.0 20.0 0.00 0.00 0.00 54 1011.2
20260904042517 86 159 12.0 17.0 0.00 0.00 0.00 54 1011.2
20260904042015 86 173 9.0 18.0 0.00 0.00 0.00 53 1011.1
20260904041531 86 202 10.0 18.0 0.00 0.00 0.00 53 1011.1
20260904041015 86 131 9.0 20.0 0.00 0.00 0.00 52 1011.0
20260904040520 86 161 10.0 17.0 0.00 0.00 0.00 52 1010.9
20260904040035 87 148 8.0 17.0 0.00 0.00 0.00 51 1010.9
20260904035517 87 167 10.0 18.0 0.00 0.00 0.00 51 1011.0
20260904035009 87 164 8.0 19.0 0.00 0.00 0.00 50 1011.0
20260904034517 87 132 10.0 19.0 0.00 0.00 0.00 50 1011.0
20260904034012 87 167 9.0 18.0 0.00 0.00 0.00 49 1010.9
20260904033512 88 153 9.0 18.0 0.00 0.00 0.00 49 1010.9
20260904033031 88 149 10.0 18.0 0.00 0.00 0.00 48 1010.9
20260904032513 88 176 10.0 18.0 0.00 0.00 0.00 47 1010.9
20260904032015 88 167 8.0 18.0 0.00 0.00 0.00 47 1010.7
20260904031529 89 128 11.0 20.0 0.00 0.00 0.00 46 1010.8
20260904031017 89 138 11.0 20.0 0.00 0.00 0.00 46 1010.7
20260904030518 89 136 11.0 18.0 0.00 0.00 0.00 45 1010.7
20260904030035 89 175 12.0 19.0 0.00 0.00 0.00 45 1010.6
20260904025510 89 141 10.0 19.0 0.00 0.00 0.00 44 1010.4
20260904025010 90 144 9.0 17.0 0.00 0.00 0.00 44 1010.4
20260904024516 90 150 10.0 20.0 0.00 0.00 0.00 43 1010.4
20260904024002 90 163 12.0 20.0 0.00 0.00 0.00 43 1010.3
20260904023505 90 150 9.0 19.0 0.00 0.00 0.00 43 1010.2
20260904023004 90 138 10.0 19.0 0.00 0.00 0.00 43 1010.1
20260904022505 91 123 10.0 15.0 0.00 0.00 0.00 43 1010.0
20260904022005 91 139 7.0 14.0 0.00 0.00 0.00 42 1010.0
20260904021510 91 134 8.0 17.0 0.00 0.00 0.00 42 1009.8
20260904021011 91 360 10.0 17.0 0.00 0.00 0.00 42 1009.8
20260904020507 91 140 9.0 16.0 0.00 0.00 0.00 42 1009.7
20260904020019 92 142 11.0 16.0 0.00 0.00 0.00 42 1009.6
20260904015510 92 117 9.0 20.0 0.00 0.00 0.00 42 1009.4
20260904015014 92 119 9.0 20.0 0.00 0.00 0.00 41 1009.4
20260904014503 92 131 8.0 17.0 0.00 0.00 0.00 41 1009.3
20260904014008 93 147 8.0 17.0 0.00 0.00 0.00 41 1009.1
20260904013503 93 150 7.0 17.0 0.00 0.00 0.00 40 1009.1
20260904013010 93 157 7.0 16.0 0.00 0.00 0.00 40 1009.1
20260904012505 93 142 8.0 14.0 0.00 0.00 0.00 39 1009.0
20260904012007 94 166 9.0 14.0 0.00 0.00 0.00 39 1009.1
20260904011513 94 162 7.0 13.0 0.00 0.00 0.00 39 1009.0
20260904011014 94 136 7.0 13.0 0.00 0.00 0.00 39 1009.0
20260904010508 95 163 7.0 15.0 0.00 0.00 0.00 38 1008.9
20260904010035 95 157 8.0 17.0 0.00 0.00 0.00 38 1008.8
20260904005510 96 134 9.0 17.0 0.00 0.00 0.00 37 1008.8
20260904005011 96 148 9.0 15.0 0.00 0.00 0.00 37 1008.8
20260904004503 96 148 8.0 15.0 0.00 0.00 0.00 36 1008.8
20260904004003 97 157 6.0 17.0 0.00 0.00 0.00 36 1008.7
20260904003505 97 159 10.0 17.0 0.00 0.00 0.00 36 1008.6
20260904003009 97 179 9.0 21.0 0.00 0.00 0.00 35 1008.6
20260904002508 98 119 11.0 21.0 0.00 0.00 0.00 35 1008.7
20260904002010 98 161 11.0 18.0 0.00 0.00 0.00 35 1008.7
20260904001518 98 161 8.0 23.0 0.00 0.00 0.00 34 1008.7
20260904001011 98 180 9.0 23.0 0.00 0.00 0.00 34 1008.7
20260904000516 99 141 12.0 23.0 0.00 0.00 0.00 34 1008.7
20260904000029 99 171 8.0 18.0 0.00 0.00 0.00 34 1008.6
20260903235511 99 137 8.0 20.0 0.00 0.00 0.00 33 1008.6
20260903235003 99 147 7.0 20.0 0.00 0.00 0.00 33 1008.6
20260903234504 100 156 10.0 20.0 0.00 0.00 0.00 33 1008.6
20260903234006 100 126 11.0 16.0 0.00 0.00 0.00 32 1008.5
20260903233506 100 157 9.0 13.0 0.00 0.00 0.00 31 1008.5
20260903233010 100 196 7.0 13.0 0.00 0.00 0.00 30 1008.5
20260903232509 101 170 6.0 18.0 0.00 0.00 0.00 29 1008.4
20260903232011 101 173 8.0 21.0 0.00 0.00 0.00 29 1008.3
20260903231519 101 233 12.0 21.0 0.00 0.00 0.00 28 1008.2
20260903231011 101 164 8.0 18.0 0.00 0.00 0.00 28 1008.3
20260903230511 101 202 6.0 18.0 0.00 0.00 0.00 28 1008.3
20260903230024 101 211 8.0 20.0 0.00 0.00 0.00 28 1008.2
20260903225516 102 218 9.0 20.0 0.00 0.00 0.00 28 1008.2
20260903225004 102 193 9.0 14.0 0.00 0.00 0.00 28 1008.2
20260903224508 102 199 7.0 18.0 0.00 0.00 0.00 27 1008.3
20260903224008 102 202 10.0 21.0 0.00 0.00 0.00 27 1008.3
20260903223507 102 156 12.0 21.0 0.00 0.00 0.00 27 1008.3
20260903223015 102 205 9.0 18.0 0.00 0.00 0.00 28 1008.3
20260903222512 102 170 9.0 18.0 0.00 0.00 0.00 27 1008.4
20260903222010 102 198 7.0 18.0 0.00 0.00 0.00 27 1008.3
20260903221523 102 194 10.0 18.0 0.00 0.00 0.00 27 1008.4
20260903221014 102 192 9.0 17.0 0.00 0.00 0.00 27 1008.5
20260903220515 102 169 10.0 18.0 0.00 0.00 0.00 27 1008.5
20260903220023 102 161 11.0 20.0 0.00 0.00 0.00 27 1008.6
20260903215506 102 177 9.0 20.0 0.00 0.00 0.00 28 1008.6
20260903215004 102 165 10.0 19.0 0.00 0.00 0.00 28 1008.6
20260903214516 102 167 9.0 21.0 0.00 0.00 0.00 27 1008.7
20260903214012 103 171 11.0 23.0 0.00 0.00 0.00 27 1008.7
20260903213510 103 191 10.0 23.0 0.00 0.00 0.00 27 1008.7
20260903213017 103 238 10.0 21.0 0.00 0.00 0.00 27 1008.7
20260903212510 103 192 9.0 20.0 0.00 0.00 0.00 27 1008.6
20260903212015 103 178 9.0 20.0 0.00 0.00 0.00 27 1008.5
20260903211526 103 170 10.0 16.0 0.00 0.00 0.00 27 1008.6
20260903211014 103 242 7.0 17.0 0.00 0.00 0.00 27 1008.7
20260903210514 103 205 10.0 20.0 0.00 0.00 0.00 27 1008.9
20260903210004 103 246 10.0 19.0 0.00 0.00 0.00 27 1009.0
20260903205509 103 225 8.0 19.0 0.00 0.00 0.00 28 1009.0
20260903205006 103 198 8.0 19.0 0.00 0.00 0.00 28 1009.2
20260903204512 102 184 8.0 25.0 0.00 0.00 0.00 28 1009.1
20260903204007 102 151 10.0 25.0 0.00 0.00 0.00 28 1009.2
20260903203516 103 174 11.0 19.0 0.00 0.00 0.00 28 1009.2
20260903203033 103 184 6.0 20.0 0.00 0.00 0.00 29 1009.1
20260903202512 102 211 9.0 19.0 0.00 0.00 0.00 28 1009.2
20260903202015 102 142 10.0 19.0 0.00 0.00 0.00 28 1009.3
20260903201528 102 184 9.0 17.0 0.00 0.00 0.00 28 1009.3
20260903201015 102 266 11.0 27.0 0.00 0.00 0.00 29 1009.4
20260903200515 102 213 11.0 27.0 0.00 0.00 0.00 29 1009.5
20260903200010 102 136 9.0 22.0 0.00 0.00 0.00 30 1009.5
20260903195508 102 223 9.0 22.0 0.00 0.00 0.00 29 1009.6
20260903195007 101 173 11.0 22.0 0.00 0.00 0.00 30 1009.6
20260903194515 101 211 9.0 20.0 0.00 0.00 0.00 29 1009.5
20260903194010 101 197 12.0 20.0 0.00 0.00 0.00 29 1009.6
20260903193514 101 211 12.0 19.0 0.00 0.00 0.00 30 1009.6
20260903193023 101 178 11.0 22.0 0.00 0.00 0.00 32 1009.5
20260903192517 101 205 10.0 22.0 0.00 0.00 0.00 32 1009.5
20260903192015 101 188 9.0 18.0 0.00 0.00 0.00 33 1009.6
20260903191526 100 194 6.0 23.0 0.00 0.00 0.00 33 1009.7